Weather History for Poplar Bluff, MO

Change the Weather History Date:

Saturday, April 27, 2013

  Actual Average Record
Temperature  
Mean Temperature 55 °F -  
Max Temperature 60 °F 74 °F 94 °F (1927)
Min Temperature 51 °F 51 °F 34 °F (1928)
Degree Days  
Heating Degree Days 10    
Growing Degree Days 5 (Base 50)    
Moisture  
Dew Point 52 °F    
Average Humidity 91    
Maximum Humidity 94    
Minimum Humidity 87    
Precipitation  
Precipitation 0.94 in - - ()
Sea Level Pressure  
Sea Level Pressure 30.09 in    
Wind  
Wind Speed 6 mph (NE)    
Max Wind Speed 9 mph    
Max Gust Speed -    
Visibility 6 miles    
Events Rain , Thunderstorm    
Averages and records for this station are not official NWS values.
T = Trace of Precipitation, MM = Missing Value Source: NWS Daily Summary

Daily Weather History Graph

Daily Weather History Graph

Search for Another Location

Airport:

Trip Planner

Search our weather history database for the weather conditions in past years. The results will help you decide how hot, cold, wet, or windy it might be!

Date:

Astronomy

Apr. 27, 2013 Rise Set
Actual Time 6:11 AM CDT 7:46 PM CDT
Civil Twilight 5:44 AM CDT 8:14 PM CDT
Nautical Twilight 5:11 AM CDT 8:47 PM CDT
Astronomical Twilight 4:36 AM CDT 9:22 PM CDT
Moon 10:13 PM CDT (4/27) 7:32 AM CDT (4/27)
Length of Visible Light 14h 30m
Length of Day
13h 34m
Waning Gibbous, 95% of the Moon is Illuminated
Apr 27
Waning Gibbous
May 2
Last Quarter
May 9
New
May 17
First Quarter
May 24
Full

Hourly Weather History & Observations

Time (CDT) Temp. Dew Point Humidity Pressure Visibility Wind Dir Wind Speed Gust Speed Precip Events Conditions
12:01 AM 51.8 °F 48.2 °F 88% 30.26 in 5.0 mi East 5.8 mph - 0.00 in Rain Light Rain
12:53 AM 52.0 °F 48.9 °F 89% 30.23 in 7.0 mi East 6.9 mph - 0.01 in   Overcast
1:41 AM 51.8 °F 48.2 °F 88% 30.24 in 2.5 mi NNE 6.9 mph - 0.08 in Rain , Thunderstorm Heavy Rain
1:53 AM 52.0 °F 48.9 °F 89% 30.26 in 3.0 mi North 6.9 mph - 0.13 in Rain , Thunderstorm Light Rain
1:55 AM 51.8 °F 48.2 °F 88% 30.26 in 3.0 mi North 5.8 mph - 0.01 in Rain , Thunderstorm Rain
1:59 AM 51.8 °F 48.2 °F 88% 30.25 in 2.5 mi North 9.2 mph - 0.03 in Rain , Thunderstorm Heavy Rain
2:10 AM 51.8 °F 48.2 °F 88% 30.24 in 1.8 mi NE 5.8 mph - 0.17 in Rain Heavy Rain
2:21 AM 51.8 °F 50.0 °F 94% 30.23 in 2.0 mi ENE 3.5 mph - 0.27 in Rain Light Rain
2:26 AM 51.8 °F 48.2 °F 88% 30.22 in 4.0 mi NE 5.8 mph - 0.27 in Rain Light Rain
2:53 AM 51.1 °F 48.9 °F 92% 30.21 in 5.0 mi NE 8.1 mph - 0.28 in Rain Light Rain
3:40 AM 51.8 °F 48.2 °F 88% 30.18 in 7.0 mi ENE 6.9 mph - 0.03 in   Overcast
3:53 AM 52.0 °F 48.9 °F 89% 30.19 in 7.0 mi ENE 5.8 mph - 0.03 in Rain Light Rain
4:53 AM 52.0 °F 48.9 °F 89% 30.15 in 6.0 mi ENE 6.9 mph - 0.03 in Rain Light Rain
5:53 AM 52.0 °F 50.0 °F 93% 30.15 in 7.0 mi East 5.8 mph - 0.00 in   Overcast
6:01 AM 51.8 °F 50.0 °F 94% 30.12 in 7.0 mi ENE 9.2 mph - 0.00 in Rain , Thunderstorm Light Rain
6:16 AM 51.8 °F 50.0 °F 94% 30.12 in 7.0 mi ENE 5.8 mph - 0.00 in Rain Light Rain
6:53 AM 52.0 °F 50.0 °F 93% 30.13 in 5.0 mi East 5.8 mph - 0.02 in Rain Rain
7:03 AM 51.8 °F 50.0 °F 94% 30.13 in 4.0 mi NNE 5.8 mph - 0.04 in Rain , Thunderstorm Thunderstorms and Rain
7:20 AM 51.8 °F 50.0 °F 94% 30.14 in 2.5 mi NE 6.9 mph - 0.14 in Rain , Thunderstorm Rain
7:25 AM 51.8 °F 50.0 °F 94% 30.13 in 3.0 mi East 8.1 mph - 0.16 in Rain , Thunderstorm Rain
7:34 AM 51.8 °F 50.0 °F 94% 30.14 in 3.0 mi ENE 8.1 mph - 0.19 in Rain Rain
7:51 AM 51.8 °F 50.0 °F 94% 30.12 in 2.5 mi East 9.2 mph - 0.26 in Rain Rain
7:53 AM 52.0 °F 50.0 °F 93% 30.12 in 2.5 mi ENE 9.2 mph - 0.26 in Rain Rain
8:14 AM 51.8 °F 50.0 °F 94% 30.10 in 3.0 mi ENE 8.1 mph - 0.05 in Rain Light Rain
8:53 AM 53.1 °F 50.0 °F 89% 30.13 in 10.0 mi East 3.5 mph - 0.06 in   Overcast
9:53 AM 54.0 °F 51.1 °F 90% 30.11 in 10.0 mi ENE 6.9 mph - N/A   Overcast
10:53 AM 54.0 °F 52.0 °F 93% 30.10 in 10.0 mi East 6.9 mph - N/A   Overcast
11:53 AM 55.9 °F 53.1 °F 90% 30.08 in 10.0 mi East 4.6 mph - N/A   Overcast
12:53 PM 57.0 °F 54.0 °F 89% 30.06 in 9.0 mi ENE 4.6 mph - N/A   Overcast
1:53 PM 57.9 °F 55.0 °F 90% 30.02 in 9.0 mi East 4.6 mph - 0.00 in   Overcast
2:53 PM 59.0 °F 55.0 °F 87% 30.01 in 10.0 mi North 4.6 mph - 0.00 in Rain Light Rain
3:53 PM 59.0 °F 55.9 °F 90% 29.98 in 10.0 mi NE 4.6 mph - 0.00 in   Overcast
4:31 PM 59.0 °F 55.4 °F 88% 29.97 in 10.0 mi North 3.5 mph - 0.01 in Rain , Thunderstorm Light Rain
4:45 PM 59.0 °F 55.4 °F 88% 29.96 in 2.5 mi NNW 5.8 mph - 0.05 in Rain Light Rain
4:53 PM 59.0 °F 55.9 °F 90% 29.97 in 6.0 mi North 4.6 mph - 0.06 in Rain Light Rain
5:18 PM 59.0 °F 55.4 °F 88% 29.96 in 2.5 mi North 4.6 mph - 0.03 in Rain Light Rain
5:27 PM 59.0 °F 55.4 °F 88% 29.95 in 3.0 mi NNE 4.6 mph - 0.05 in Rain Light Rain
5:53 PM 59.0 °F 55.9 °F 90% 29.94 in 5.0 mi North 4.6 mph - 0.06 in Rain Light Rain
6:53 PM 57.9 °F 55.9 °F 93% 29.94 in 8.0 mi NW 6.9 mph - N/A   Overcast
7:53 PM 57.0 °F 55.0 °F 93% 29.94 in 7.0 mi NW 9.2 mph - N/A   Overcast
8:11 PM 57.2 °F 55.4 °F 94% 29.94 in 4.0 mi NW 9.2 mph - N/A   Overcast
8:53 PM 57.0 °F 55.0 °F 93% 29.95 in 6.0 mi NW 5.8 mph - N/A   Overcast
9:13 PM 57.2 °F 55.4 °F 94% 29.94 in 10.0 mi NW 8.1 mph - N/A   Overcast
9:53 PM 55.9 °F 54.0 °F 93% 29.94 in 10.0 mi NW 6.9 mph - N/A   Overcast
10:53 PM 55.9 °F 53.1 °F 90% 29.94 in 10.0 mi WNW 4.6 mph - N/A   Overcast
11:53 PM 55.0 °F 52.0 °F 89% 29.94 in 10.0 mi West 4.6 mph - N/A   Scattered Clouds